| time (UTC) | temp F | wind direction | speed MPH | gust MPH | rain 1hr in | rain 24hr in | rain mn in | humidity % | barometer mb |
| 20260510011020 | 55 | 207 | 0.0 | 5.0 | 0.00 | 0.00 | 0.00 | 71 | 1004.2 |
| 20260510010517 | 56 | 194 | 2.0 | 6.0 | 0.00 | 0.00 | 0.00 | 71 | 1004.2 |
| 20260510010014 | 55 | 214 | 3.0 | 6.0 | 0.00 | 0.00 | 0.00 | 71 | 1004.3 |
| 20260510005509 | 56 | 151 | 0.0 | 3.0 | 0.00 | 0.00 | 0.00 | 70 | 1004.2 |
| 20260510005008 | 56 | 194 | 2.0 | 3.0 | 0.00 | 0.00 | 0.00 | 70 | 1004.2 |
| 20260510004505 | 56 | 113 | 1.0 | 4.0 | 0.00 | 0.00 | 0.00 | 69 | 1004.1 |
| 20260510004003 | 56 | 207 | 4.0 | 6.0 | 0.00 | 0.00 | 0.00 | 69 | 1004.3 |
| 20260510003459 | 56 | 239 | 0.0 | 3.0 | 0.00 | 0.00 | 0.00 | 70 | 1004.1 |
| 20260510002954 | 57 | 182 | 2.0 | 4.0 | 0.00 | 0.00 | 0.00 | 69 | 1003.9 |
| 20260510002450 | 57 | 108 | 1.0 | 4.0 | 0.00 | 0.00 | 0.00 | 68 | 1004.2 |
| 20260510001947 | 57 | 164 | 2.0 | 4.0 | 0.00 | 0.00 | 0.00 | 68 | 1004.5 |
| 20260510001444 | 57 | 220 | 2.0 | 3.0 | 0.00 | 0.00 | 0.00 | 68 | 1004.3 |
| 20260510000942 | 57 | 203 | 4.0 | 4.0 | 0.00 | 0.00 | 0.00 | 67 | 1004.3 |
| 20260510000440 | 58 | 194 | 1.0 | 5.0 | 0.00 | 0.00 | 0.00 | 66 | 1004.6 |
| 20260509235935 | 58 | 181 | 2.0 | 4.0 | 0.00 | 0.00 | 0.00 | 66 | 1004.4 |
| 20260509235432 | 58 | 191 | 2.0 | 3.0 | 0.00 | 0.00 | 0.00 | 65 | 1004.3 |
| 20260509234928 | 59 | 173 | 1.0 | 6.0 | 0.00 | 0.00 | 0.00 | 64 | 1004.6 |
| 20260509234425 | 59 | 213 | 5.0 | 7.0 | 0.00 | 0.00 | 0.00 | 63 | 1004.5 |
| 20260509233923 | 59 | 193 | 0.0 | 9.0 | 0.00 | 0.00 | 0.00 | 63 | 1004.5 |
| 20260509233420 | 59 | 233 | 7.0 | 7.0 | 0.00 | 0.00 | 0.00 | 62 | 1004.5 |
| 20260509232916 | 59 | 250 | 2.0 | 6.0 | 0.00 | 0.00 | 0.00 | 63 | 1004.6 |
| 20260509232414 | 59 | 256 | 4.0 | 14.0 | 0.00 | 0.00 | 0.00 | 62 | 1004.6 |
| 20260509231909 | 59 | 197 | 3.0 | 11.0 | 0.00 | 0.00 | 0.00 | 61 | 1004.6 |
| 20260509231406 | 59 | 240 | 4.0 | 13.0 | 0.00 | 0.00 | 0.00 | 61 | 1004.6 |
| 20260509230904 | 59 | 232 | 6.0 | 11.0 | 0.00 | 0.00 | 0.00 | 60 | 1004.5 |
| 20260509230401 | 60 | 215 | 8.0 | 14.0 | 0.00 | 0.00 | 0.00 | 59 | 1004.5 |
| 20260509225857 | 60 | 220 | 8.0 | 11.0 | 0.00 | 0.00 | 0.00 | 59 | 1004.6 |
| 20260509225354 | 60 | 214 | 6.0 | 14.0 | 0.00 | 0.00 | 0.00 | 59 | 1004.5 |
| 20260509224849 | 61 | 222 | 15.0 | 15.0 | 0.00 | 0.00 | 0.00 | 58 | 1004.5 |
| 20260509224345 | 61 | 316 | 2.0 | 7.0 | 0.00 | 0.00 | 0.00 | 58 | 1004.5 |
| 20260509223842 | 61 | 208 | 8.0 | 13.0 | 0.00 | 0.00 | 0.00 | 57 | 1004.3 |
| 20260509223339 | 60 | 234 | 4.0 | 15.0 | 0.00 | 0.00 | 0.00 | 57 | 1004.7 |
| 20260509222836 | 60 | 243 | 3.0 | 12.0 | 0.00 | 0.00 | 0.00 | 58 | 1004.5 |
| 20260509222331 | 60 | 254 | 7.0 | 13.0 | 0.00 | 0.00 | 0.00 | 58 | 1004.6 |
| 20260509221827 | 60 | 221 | 5.0 | 10.0 | 0.00 | 0.00 | 0.00 | 59 | 1004.5 |
| 20260509221325 | 60 | 227 | 8.0 | 13.0 | 0.00 | 0.00 | 0.00 | 58 | 1004.4 |
| 20260509220825 | 60 | 251 | 4.0 | 14.0 | 0.00 | 0.00 | 0.00 | 59 | 1004.4 |
| 20260509220321 | 61 | 247 | 8.0 | 26.0 | 0.00 | 0.00 | 0.00 | 58 | 1004.4 |
| 20260509215817 | 62 | 282 | 6.0 | 12.0 | 0.00 | 0.00 | 0.00 | 57 | 1004.5 |
| 20260509215314 | 62 | 289 | 3.0 | 14.0 | 0.00 | 0.00 | 0.00 | 57 | 1004.9 |
| 20260509214811 | 62 | 269 | 7.0 | 13.0 | 0.00 | 0.00 | 0.00 | 55 | 1004.6 |
| 20260509214308 | 62 | 246 | 7.0 | 11.0 | 0.00 | 0.00 | 0.00 | 56 | 1004.7 |
| 20260509213805 | 62 | 244 | 11.0 | 18.0 | 0.00 | 0.00 | 0.00 | 57 | 1004.6 |
| 20260509213300 | 62 | 231 | 10.0 | 19.0 | 0.00 | 0.00 | 0.00 | 56 | 1004.5 |
| 20260509212758 | 61 | 247 | 5.0 | 20.0 | 0.00 | 0.00 | 0.00 | 56 | 1004.7 |
| 20260509212255 | 62 | 254 | 12.0 | 17.0 | 0.00 | 0.00 | 0.00 | 55 | 1004.8 |
| 20260509211750 | 63 | 269 | 5.0 | 13.0 | 0.00 | 0.00 | 0.00 | 54 | 1004.7 |
| 20260509211247 | 62 | 246 | 8.0 | 21.0 | 0.00 | 0.00 | 0.00 | 54 | 1004.6 |
| 20260509210744 | 62 | 225 | 13.0 | 18.0 | 0.00 | 0.00 | 0.00 | 53 | 1004.5 |
| 20260509210242 | 63 | 276 | 7.0 | 16.0 | 0.00 | 0.00 | 0.00 | 51 | 1004.5 |
| 20260509205741 | 63 | 240 | 9.0 | 19.0 | 0.00 | 0.00 | 0.00 | 51 | 1004.6 |
| 20260509205236 | 65 | 238 | 8.0 | 11.0 | 0.00 | 0.00 | 0.00 | 49 | 1004.5 |
| 20260509204732 | 64 | 213 | 7.0 | 7.0 | 0.00 | 0.00 | 0.00 | 49 | 1004.4 |
| 20260509204229 | 64 | 230 | 13.0 | 15.0 | 0.00 | 0.00 | 0.00 | 48 | 1004.5 |
| 20260509203724 | 64 | 268 | 5.0 | 19.0 | 0.00 | 0.00 | 0.00 | 48 | 1004.5 |
| 20260509203223 | 64 | 224 | 9.0 | 14.0 | 0.00 | 0.00 | 0.00 | 48 | 1004.7 |
| 20260509202718 | 64 | 233 | 11.0 | 12.0 | 0.00 | 0.00 | 0.00 | 47 | 1004.9 |
| 20260509202214 | 65 | 238 | 13.0 | 21.0 | 0.00 | 0.00 | 0.00 | 44 | 1004.7 |
| 20260509201709 | 67 | 227 | 6.0 | 16.0 | 0.00 | 0.00 | 0.00 | 42 | 1004.6 |
| 20260509201206 | 66 | 229 | 6.0 | 15.0 | 0.00 | 0.00 | 0.00 | 43 | 1004.6 |
| 20260509200702 | 66 | 251 | 5.0 | 13.0 | 0.00 | 0.00 | 0.00 | 39 | 1004.2 |
| 20260509200157 | 65 | 243 | 8.0 | 11.0 | 0.00 | 0.00 | 0.00 | 39 | 1004.4 |
| 20260509195653 | 64 | 231 | 12.0 | 16.0 | 0.00 | 0.00 | 0.00 | 39 | 1004.4 |
| 20260509195149 | 65 | 225 | 9.0 | 13.0 | 0.00 | 0.00 | 0.00 | 38 | 1004.5 |
| 20260509194648 | 67 | 220 | 8.0 | 15.0 | 0.00 | 0.00 | 0.00 | 39 | 1004.6 |
| 20260509194146 | 66 | 227 | 5.0 | 8.0 | 0.00 | 0.00 | 0.00 | 39 | 1004.6 |
| 20260509193641 | 66 | 256 | 3.0 | 11.0 | 0.00 | 0.00 | 0.00 | 38 | 1004.7 |
| 20260509193137 | 64 | 230 | 11.0 | 15.0 | 0.00 | 0.00 | 0.00 | 38 | 1005.0 |
| 20260509192634 | 64 | 237 | 3.0 | 11.0 | 0.00 | 0.00 | 0.00 | 39 | 1005.0 |
| 20260509192130 | 65 | 230 | 6.0 | 16.0 | 0.00 | 0.00 | 0.00 | 36 | 1005.1 |
| 20260509191629 | 65 | 231 | 5.0 | 11.0 | 0.00 | 0.00 | 0.00 | 39 | 1005.3 |
| 20260509191126 | 65 | 285 | 8.0 | 15.0 | 0.00 | 0.00 | 0.00 | 38 | 1005.4 |
| 20260509190623 | 63 | 244 | 8.0 | 11.0 | 0.00 | 0.00 | 0.00 | 40 | 1005.2 |
| 20260509190120 | 66 | 233 | 11.0 | 13.0 | 0.00 | 0.00 | 0.00 | 38 | 1005.3 |
| 20260509185618 | 64 | 221 | 8.0 | 12.0 | 0.00 | 0.00 | 0.00 | 38 | 1005.4 |
| 20260509185113 | 65 | 236 | 4.0 | 12.0 | 0.00 | 0.00 | 0.00 | 40 | 1005.5 |
| 20260509184612 | 66 | 205 | 9.0 | 13.0 | 0.00 | 0.00 | 0.00 | 39 | 1005.3 |
| 20260509184108 | 65 | 238 | 7.0 | 12.0 | 0.00 | 0.00 | 0.00 | 41 | 1005.4 |
| 20260509183603 | 65 | 225 | 5.0 | 9.0 | 0.00 | 0.00 | 0.00 | 42 | 1005.6 |
| 20260509183059 | 66 | 279 | 0.0 | 7.0 | 0.00 | 0.00 | 0.00 | 45 | 1005.4 |
| 20260509182556 | 65 | 242 | 2.0 | 7.0 | 0.00 | 0.00 | 0.00 | 42 | 1005.6 |
| 20260509182053 | 64 | 221 | 4.0 | 6.0 | 0.00 | 0.00 | 0.00 | 43 | 1005.6 |
| 20260509181551 | 64 | 201 | 2.0 | 8.0 | 0.00 | 0.00 | 0.00 | 45 | 1005.6 |
| 20260509181048 | 65 | 241 | 7.0 | 14.0 | 0.00 | 0.00 | 0.00 | 41 | 1005.8 |
| 20260509180544 | 66 | 200 | 4.0 | 8.0 | 0.00 | 0.00 | 0.00 | 41 | 1005.6 |
| 20260509180042 | 64 | 229 | 4.0 | 7.0 | 0.00 | 0.00 | 0.00 | 42 | 1005.9 |
| 20260509175537 | 64 | 179 | 4.0 | 17.0 | 0.00 | 0.00 | 0.00 | 42 | 1006.0 |
| 20260509175034 | 64 | 181 | 5.0 | 12.0 | 0.00 | 0.00 | 0.00 | 40 | 1005.9 |
| 20260509174531 | 62 | 222 | 8.0 | 13.0 | 0.00 | 0.00 | 0.00 | 41 | 1006.1 |
| 20260509174026 | 62 | 215 | 5.0 | 12.0 | 0.00 | 0.00 | 0.00 | 40 | 1006.1 |
| 20260509173520 | 62 | 233 | 3.0 | 7.0 | 0.00 | 0.00 | 0.00 | 39 | 1006.2 |
| 20260509173017 | 63 | 226 | 4.0 | 8.0 | 0.00 | 0.00 | 0.00 | 40 | 1006.2 |
| 20260509172514 | 64 | 274 | 9.0 | 17.0 | 0.00 | 0.00 | 0.00 | 39 | 1005.9 |
| 20260509172009 | 64 | 211 | 9.0 | 9.0 | 0.00 | 0.00 | 0.00 | 39 | 1006.3 |
| 20260509171506 | 63 | 233 | 9.0 | 14.0 | 0.00 | 0.00 | 0.00 | 36 | 1006.3 |
| 20260509171002 | 65 | 247 | 6.0 | 11.0 | 0.00 | 0.00 | 0.00 | 36 | 1006.3 |
| 20260509170458 | 66 | 213 | 5.0 | 9.0 | 0.00 | 0.00 | 0.00 | 34 | 1006.2 |
| 20260509165954 | 65 | 247 | 6.0 | 9.0 | 0.00 | 0.00 | 0.00 | 36 | 1006.3 |
| 20260509165452 | 66 | 204 | 4.0 | 7.0 | 0.00 | 0.00 | 0.00 | 36 | 1006.3 |
| 20260509164949 | 64 | 260 | 2.0 | 9.0 | 0.00 | 0.00 | 0.00 | 34 | 1006.5 |
| 20260509164445 | 64 | 264 | 3.0 | 8.0 | 0.00 | 0.00 | 0.00 | 35 | 1006.6 |
| 20260509163940 | 64 | 221 | 4.0 | 7.0 | 0.00 | 0.00 | 0.00 | 38 | 1006.8 |
| 20260509163438 | 64 | 272 | 4.0 | 11.0 | 0.00 | 0.00 | 0.00 | 33 | 1007.0 |
| 20260509162937 | 65 | 233 | 2.0 | 10.0 | 0.00 | 0.00 | 0.00 | 35 | 1006.8 |
| 20260509162436 | 64 | 276 | 3.0 | 8.0 | 0.00 | 0.00 | 0.00 | 33 | 1007.1 |
| 20260509161931 | 64 | 241 | 9.0 | 10.0 | 0.00 | 0.00 | 0.00 | 31 | 1007.2 |
| 20260509161428 | 64 | 225 | 9.0 | 10.0 | 0.00 | 0.00 | 0.00 | 32 | 1007.0 |
| 20260509160924 | 64 | 224 | 11.0 | 14.0 | 0.00 | 0.00 | 0.00 | 32 | 1007.3 |
| 20260509160420 | 65 | 141 | 0.0 | 3.0 | 0.00 | 0.00 | 0.00 | 38 | 1007.3 |
| 20260509155915 | 63 | 217 | 3.0 | 7.0 | 0.00 | 0.00 | 0.00 | 38 | 1007.4 |
| 20260509155412 | 63 | 221 | 8.0 | 11.0 | 0.00 | 0.00 | 0.00 | 35 | 1007.5 |
| 20260509154909 | 63 | 241 | 3.0 | 12.0 | 0.00 | 0.00 | 0.00 | 32 | 1007.5 |
| 20260509154405 | 64 | 208 | 6.0 | 7.0 | 0.00 | 0.00 | 0.00 | 32 | 1007.7 |
| 20260509153901 | 64 | 226 | 3.0 | 5.0 | 0.00 | 0.00 | 0.00 | 36 | 1007.6 |
| 20260509153359 | 64 | 238 | 2.0 | 7.0 | 0.00 | 0.00 | 0.00 | 39 | 1007.9 |
| 20260509152856 | 63 | 224 | 2.0 | 6.0 | 0.00 | 0.00 | 0.00 | 37 | 1007.9 |
| 20260509152352 | 63 | 205 | 10.0 | 11.0 | 0.00 | 0.00 | 0.00 | 34 | 1008.2 |
| 20260509151849 | 62 | 83 | 1.0 | 7.0 | 0.00 | 0.00 | 0.00 | 35 | 1008.1 |
| 20260509151345 | 63 | 230 | 5.0 | 6.0 | 0.00 | 0.00 | 0.00 | 32 | 1008.1 |
| 20260509150843 | 62 | 205 | 2.0 | 6.0 | 0.00 | 0.00 | 0.00 | 34 | 1008.2 |
| 20260509150341 | 62 | 198 | 5.0 | 10.0 | 0.00 | 0.00 | 0.00 | 31 | 1008.1 |
| 20260509145838 | 62 | 208 | 6.0 | 12.0 | 0.00 | 0.00 | 0.00 | 33 | 1008.3 |
| 20260509145333 | 62 | 203 | 3.0 | 5.0 | 0.00 | 0.00 | 0.00 | 40 | 1008.2 |
| 20260509144830 | 61 | 206 | 4.0 | 11.0 | 0.00 | 0.00 | 0.00 | 35 | 1008.4 |
| 20260509144326 | 60 | 229 | 8.0 | 11.0 | 0.00 | 0.00 | 0.00 | 36 | 1008.4 |
| 20260509143823 | 60 | 225 | 9.0 | 10.0 | 0.00 | 0.00 | 0.00 | 38 | 1008.4 |
| 20260509143321 | 59 | 231 | 8.0 | 14.0 | 0.00 | 0.00 | 0.00 | 37 | 1008.5 |
| 20260509142817 | 60 | 204 | 4.0 | 10.0 | 0.00 | 0.00 | 0.00 | 38 | 1008.7 |
| 20260509142313 | 60 | 209 | 9.0 | 10.0 | 0.00 | 0.00 | 0.00 | 38 | 1008.7 |
| 20260509141809 | 59 | 197 | 5.0 | 7.0 | 0.00 | 0.00 | 0.00 | 38 | 1008.6 |
| 20260509141306 | 59 | 203 | 5.0 | 8.0 | 0.00 | 0.00 | 0.00 | 39 | 1009.1 |
| 20260509140803 | 59 | 214 | 7.0 | 11.0 | 0.00 | 0.00 | 0.00 | 38 | 1008.9 |
| 20260509140300 | 59 | 214 | 6.0 | 16.0 | 0.00 | 0.00 | 0.00 | 38 | 1008.9 |
| 20260509135758 | 59 | 222 | 3.0 | 11.0 | 0.00 | 0.00 | 0.00 | 40 | 1008.9 |
| 20260509135255 | 58 | 200 | 6.0 | 15.0 | 0.00 | 0.00 | 0.00 | 38 | 1009.1 |
| 20260509134752 | 58 | 232 | 11.0 | 12.0 | 0.00 | 0.00 | 0.00 | 40 | 1009.2 |
| 20260509134249 | 58 | 210 | 4.0 | 11.0 | 0.00 | 0.00 | 0.00 | 39 | 1009.2 |
| 20260509133746 | 58 | 221 | 4.0 | 13.0 | 0.00 | 0.00 | 0.00 | 40 | 1009.2 |
| 20260509133243 | 58 | 190 | 8.0 | 11.0 | 0.00 | 0.00 | 0.00 | 40 | 1009.2 |
| 20260509132742 | 58 | 237 | 4.0 | 15.0 | 0.00 | 0.00 | 0.00 | 42 | 1009.2 |
| 20260509132240 | 58 | 205 | 3.0 | 6.0 | 0.00 | 0.00 | 0.00 | 41 | 1009.1 |
| 20260509131736 | 58 | 52 | 1.0 | 13.0 | 0.00 | 0.00 | 0.00 | 41 | 1009.2 |
| 20260509131233 | 58 | 216 | 9.0 | 12.0 | 0.00 | 0.00 | 0.00 | 40 | 1009.1 |
| 20260509130729 | 57 | 241 | 4.0 | 14.0 | 0.00 | 0.00 | 0.00 | 40 | 1009.1 |
| 20260509130225 | 57 | 239 | 5.0 | 8.0 | 0.00 | 0.00 | 0.00 | 40 | 1009.4 |
| 20260509125722 | 57 | 198 | 3.0 | 6.0 | 0.00 | 0.00 | 0.00 | 41 | 1009.1 |
| 20260509125219 | 56 | 227 | 2.0 | 12.0 | 0.00 | 0.00 | 0.00 | 40 | 1008.9 |
| 20260509124715 | 55 | 200 | 3.0 | 9.0 | 0.00 | 0.00 | 0.00 | 39 | 1009.3 |
| 20260509124212 | 55 | 233 | 3.0 | 5.0 | 0.00 | 0.00 | 0.00 | 41 | 1009.3 |
| 20260509123710 | 55 | 210 | 5.0 | 7.0 | 0.00 | 0.00 | 0.00 | 40 | 1009.4 |
| 20260509123207 | 54 | 208 | 2.0 | 8.0 | 0.00 | 0.00 | 0.00 | 41 | 1009.3 |
| 20260509122702 | 54 | 212 | 3.0 | 9.0 | 0.00 | 0.00 | 0.00 | 42 | 1009.4 |
| 20260509122200 | 53 | 208 | 3.0 | 7.0 | 0.00 | 0.00 | 0.00 | 41 | 1009.5 |
| 20260509121656 | 53 | 244 | 2.0 | 9.0 | 0.00 | 0.00 | 0.00 | 41 | 1009.5 |
| 20260509121154 | 53 | 204 | 8.0 | 8.0 | 0.00 | 0.00 | 0.00 | 41 | 1009.5 |
| 20260509120652 | 52 | 234 | 2.0 | 5.0 | 0.00 | 0.00 | 0.00 | 42 | 1009.5 |
| 20260509120149 | 51 | 190 | 3.0 | 4.0 | 0.00 | 0.00 | 0.00 | 43 | 1009.4 |
| 20260509115647 | 51 | 238 | 6.0 | 7.0 | 0.00 | 0.00 | 0.00 | 44 | 1009.6 |
| 20260509115144 | 51 | 182 | 2.0 | 9.0 | 0.00 | 0.00 | 0.00 | 43 | 1009.4 |
| 20260509114642 | 50 | 213 | 3.0 | 5.0 | 0.00 | 0.00 | 0.00 | 45 | 1009.5 |
| 20260509114141 | 49 | 246 | 2.0 | 9.0 | 0.00 | 0.00 | 0.00 | 45 | 1009.5 |
| 20260509113639 | 49 | 211 | 3.0 | 9.0 | 0.00 | 0.00 | 0.00 | 47 | 1009.5 |
| 20260509113136 | 49 | 197 | 3.0 | 9.0 | 0.00 | 0.00 | 0.00 | 46 | 1009.4 |
| 20260509112632 | 48 | 201 | 1.0 | 6.0 | 0.00 | 0.00 | 0.00 | 48 | 1009.3 |
| 20260509112130 | 48 | 200 | 4.0 | 5.0 | 0.00 | 0.00 | 0.00 | 48 | 1009.5 |
| 20260509111626 | 47 | 220 | 2.0 | 6.0 | 0.00 | 0.00 | 0.00 | 49 | 1009.5 |
| 20260509111123 | 47 | 238 | 1.0 | 4.0 | 0.00 | 0.00 | 0.00 | 50 | 1009.4 |
| 20260509110620 | 46 | 213 | 2.0 | 4.0 | 0.00 | 0.00 | 0.00 | 50 | 1009.4 |
| 20260509110118 | 46 | 251 | 2.0 | 4.0 | 0.00 | 0.00 | 0.00 | 51 | 1009.4 |
| 20260509105615 | 45 | 106 | 2.0 | 3.0 | 0.00 | 0.00 | 0.00 | 52 | 1009.4 |
| 20260509105113 | 45 | 214 | 2.0 | 2.0 | 0.00 | 0.00 | 0.00 | 52 | 1009.2 |
| 20260509104610 | 45 | 187 | 3.0 | 4.0 | 0.00 | 0.00 | 0.00 | 52 | 1009.2 |
| 20260509104108 | 44 | 237 | 0.0 | 5.0 | 0.00 | 0.00 | 0.00 | 53 | 1009.2 |
| 20260509103604 | 43 | 224 | 0.0 | 2.0 | 0.00 | 0.00 | 0.00 | 54 | 1009.3 |
| 20260509103102 | 43 | 201 | 1.0 | 3.0 | 0.00 | 0.00 | 0.00 | 55 | 1009.2 |
| 20260509102559 | 42 | 242 | 0.0 | 4.0 | 0.00 | 0.00 | 0.00 | 56 | 1009.4 |
| 20260509102056 | 42 | 184 | 0.0 | 2.0 | 0.00 | 0.00 | 0.00 | 56 | 1009.3 |
| 20260509101552 | 42 | 154 | 1.0 | 3.0 | 0.00 | 0.00 | 0.00 | 57 | 1009.2 |
| 20260509101049 | 41 | 168 | 1.0 | 2.0 | 0.00 | 0.00 | 0.00 | 58 | 1009.5 |
| 20260509100546 | 41 | 82 | 0.0 | 2.0 | 0.00 | 0.00 | 0.00 | 58 | 1009.4 |
| 20260509100044 | 41 | 205 | 2.0 | 2.0 | 0.00 | 0.00 | 0.00 | 58 | 1009.4 |
| 20260509095540 | 41 | 185 | 0.0 | 3.0 | 0.00 | 0.00 | 0.00 | 58 | 1009.3 |
| 20260509095038 | 41 | 103 | 2.0 | 2.0 | 0.00 | 0.00 | 0.00 | 57 | 1009.5 |
| 20260509094534 | 41 | 239 | 0.0 | 3.0 | 0.00 | 0.00 | 0.00 | 58 | 1009.3 |
| 20260509094031 | 40 | 164 | 1.0 | 2.0 | 0.00 | 0.00 | 0.00 | 58 | 1009.4 |
| 20260509093530 | 41 | 150 | 1.0 | 2.0 | 0.00 | 0.00 | 0.00 | 58 | 1009.5 |
| 20260509093027 | 41 | 195 | 0.0 | 2.0 | 0.00 | 0.00 | 0.00 | 58 | 1009.3 |
| 20260509092524 | 41 | 42 | 0.0 | 2.0 | 0.00 | 0.00 | 0.00 | 57 | 1009.4 |
| 20260509092023 | 40 | 240 | 0.0 | 2.0 | 0.00 | 0.00 | 0.00 | 58 | 1009.5 |
| 20260509091520 | 40 | 157 | 1.0 | 2.0 | 0.00 | 0.00 | 0.00 | 58 | 1009.3 |
| 20260509091016 | 40 | 34 | 0.0 | 3.0 | 0.00 | 0.00 | 0.00 | 58 | 1009.4 |
| 20260509090514 | 40 | 121 | 0.0 | 1.0 | 0.00 | 0.00 | 0.00 | 58 | 1009.5 |
| 20260509090012 | 40 | 127 | 0.0 | 1.0 | 0.00 | 0.00 | 0.00 | 57 | 1009.5 |
| 20260509085508 | 40 | 96 | 1.0 | 2.0 | 0.00 | 0.00 | 0.00 | 57 | 1009.5 |
| 20260509085004 | 40 | 173 | 0.0 | 2.0 | 0.00 | 0.00 | 0.00 | 58 | 1009.4 |
| 20260509084502 | 40 | 191 | 0.0 | 3.0 | 0.00 | 0.00 | 0.00 | 58 | 1009.5 |
| 20260509083959 | 40 | 68 | 2.0 | 3.0 | 0.00 | 0.00 | 0.00 | 57 | 1009.5 |
| 20260509083456 | 40 | 81 | 0.0 | 2.0 | 0.00 | 0.00 | 0.00 | 57 | 1009.7 |
| 20260509082952 | 40 | 102 | 0.0 | 2.0 | 0.00 | 0.00 | 0.00 | 56 | 1009.7 |
| 20260509082450 | 40 | 350 | 0.0 | 1.0 | 0.00 | 0.00 | 0.00 | 56 | 1009.9 |
| 20260509081947 | 41 | 61 | 0.0 | 2.0 | 0.00 | 0.00 | 0.00 | 55 | 1009.8 |
| 20260509081444 | 41 | 162 | 0.0 | 1.0 | 0.00 | 0.00 | 0.00 | 55 | 1009.9 |
| 20260509080941 | 41 | 62 | 0.0 | 2.0 | 0.00 | 0.00 | 0.00 | 54 | 1009.9 |
| 20260509080439 | 41 | 321 | 0.0 | 2.0 | 0.00 | 0.00 | 0.00 | 54 | 1009.9 |
| 20260509075937 | 42 | 244 | 1.0 | 3.0 | 0.00 | 0.00 | 0.00 | 53 | 1009.7 |
| 20260509075434 | 42 | 315 | 0.0 | 2.0 | 0.00 | 0.00 | 0.00 | 53 | 1009.8 |
| 20260509074932 | 42 | 211 | 2.0 | 4.0 | 0.00 | 0.00 | 0.00 | 53 | 1009.7 |
| 20260509074429 | 42 | 216 | 0.0 | 4.0 | 0.00 | 0.00 | 0.00 | 53 | 1009.8 |
| 20260509073925 | 42 | 127 | 1.0 | 2.0 | 0.00 | 0.00 | 0.00 | 53 | 1009.7 |
| 20260509073422 | 42 | 189 | 0.0 | 4.0 | 0.00 | 0.00 | 0.00 | 53 | 1009.7 |
| 20260509072918 | 42 | 183 | 1.0 | 3.0 | 0.00 | 0.00 | 0.00 | 53 | 1009.9 |
| 20260509072414 | 42 | 214 | 2.0 | 3.0 | 0.00 | 0.00 | 0.00 | 54 | 1009.7 |
| 20260509071911 | 42 | 215 | 2.0 | 4.0 | 0.00 | 0.00 | 0.00 | 53 | 1009.6 |
| 20260509071408 | 42 | 212 | 0.0 | 3.0 | 0.00 | 0.00 | 0.00 | 53 | 1009.7 |
| 20260509070906 | 42 | 170 | 2.0 | 5.0 | 0.00 | 0.00 | 0.00 | 52 | 1009.7 |
| 20260509070402 | 42 | 177 | 1.0 | 2.0 | 0.00 | 0.00 | 0.00 | 53 | 1009.9 |
| 20260509065858 | 42 | 226 | 2.0 | 5.0 | 0.00 | 0.00 | 0.00 | 52 | 1009.9 |
| 20260509065355 | 41 | 298 | 1.0 | 3.0 | 0.00 | 0.00 | 0.00 | 53 | 1010.0 |
| 20260509064850 | 42 | 220 | 2.0 | 4.0 | 0.00 | 0.00 | 0.00 | 53 | 1009.7 |
| 20260509064348 | 42 | 202 | 2.0 | 6.0 | 0.00 | 0.00 | 0.00 | 52 | 1009.7 |
| 20260509063846 | 42 | 221 | 4.0 | 4.0 | 0.00 | 0.00 | 0.00 | 53 | 1010.0 |
| 20260509063342 | 42 | 219 | 3.0 | 6.0 | 0.00 | 0.00 | 0.00 | 53 | 1009.9 |
| 20260509062839 | 41 | 195 | 2.0 | 4.0 | 0.00 | 0.00 | 0.00 | 53 | 1010.1 |
| 20260509062336 | 41 | 206 | 0.0 | 4.0 | 0.00 | 0.00 | 0.00 | 54 | 1010.1 |
| 20260509061833 | 41 | 213 | 0.0 | 6.0 | 0.00 | 0.00 | 0.00 | 53 | 1010.1 |
| 20260509061332 | 42 | 250 | 2.0 | 6.0 | 0.00 | 0.00 | 0.00 | 53 | 1010.2 |
| 20260509060828 | 42 | 208 | 2.0 | 4.0 | 0.00 | 0.00 | 0.00 | 53 | 1010.3 |
| 20260509060325 | 42 | 221 | 2.0 | 6.0 | 0.00 | 0.00 | 0.00 | 54 | 1010.4 |
| 20260509055820 | 41 | 236 | 4.0 | 6.0 | 0.00 | 0.00 | 0.00 | 54 | 1010.6 |
| 20260509055316 | 41 | 221 | 3.0 | 6.0 | 0.00 | 0.00 | 0.00 | 55 | 1010.4 |
| 20260509054813 | 41 | 232 | 3.0 | 6.0 | 0.00 | 0.00 | 0.00 | 54 | 1010.3 |
| 20260509054310 | 41 | 176 | 2.0 | 4.0 | 0.00 | 0.00 | 0.00 | 55 | 1010.3 |
| 20260509053808 | 41 | 233 | 3.0 | 4.0 | 0.00 | 0.00 | 0.00 | 55 | 1010.5 |
| 20260509053305 | 41 | 219 | 3.0 | 4.0 | 0.00 | 0.00 | 0.00 | 56 | 1010.6 |
| 20260509052803 | 41 | 218 | 5.0 | 5.0 | 0.00 | 0.00 | 0.00 | 55 | 1010.6 |
| 20260509052300 | 41 | 251 | 1.0 | 6.0 | 0.00 | 0.00 | 0.00 | 55 | 1010.7 |
| 20260509051758 | 41 | 220 | 4.0 | 4.0 | 0.00 | 0.00 | 0.00 | 56 | 1010.6 |
| 20260509051256 | 41 | 185 | 2.0 | 4.0 | 0.00 | 0.00 | 0.00 | 57 | 1010.6 |
| 20260509050752 | 41 | 239 | 4.0 | 6.0 | 0.00 | 0.00 | 0.00 | 57 | 1010.5 |
| 20260509050249 | 41 | 207 | 2.0 | 5.0 | 0.00 | 0.00 | 0.00 | 58 | 1010.6 |
| 20260509045746 | 41 | 205 | 3.0 | 4.0 | 0.00 | 0.00 | 0.00 | 59 | 1010.6 |
| 20260509045243 | 40 | 222 | 2.0 | 5.0 | 0.00 | 0.00 | 0.00 | 59 | 1010.6 |
| 20260509044740 | 40 | 221 | 4.0 | 4.0 | 0.00 | 0.00 | 0.00 | 60 | 1010.7 |
| 20260509044238 | 40 | 226 | 3.0 | 4.0 | 0.00 | 0.00 | 0.00 | 61 | 1010.7 |
| 20260509043734 | 40 | 203 | 0.0 | 3.0 | 0.00 | 0.00 | 0.00 | 61 | 1010.6 |
| 20260509043230 | 39 | 218 | 0.0 | 1.0 | 0.00 | 0.00 | 0.00 | 62 | 1010.5 |
| 20260509042726 | 39 | 238 | 0.0 | 2.0 | 0.00 | 0.00 | 0.00 | 63 | 1010.6 |
| 20260509041534 | 40 | 207 | 2.0 | 2.0 | 0.00 | 0.00 | 0.00 | 63 | 1010.4 |
| 20260509041032 | 40 | 207 | 2.0 | 2.0 | 0.00 | 0.00 | 0.00 | 63 | 1010.4 |
| 20260509040531 | 40 | 214 | 0.0 | 2.0 | 0.00 | 0.00 | 0.00 | 63 | 1010.6 |
| 20260509040027 | 39 | 241 | 1.0 | 2.0 | 0.00 | 0.00 | 0.00 | 64 | 1010.5 |
| 20260509035524 | 40 | 53 | 0.0 | 1.0 | 0.00 | 0.00 | 0.00 | 64 | 1010.4 |
| 20260509035020 | 41 | 58 | 1.0 | 2.0 | 0.00 | 0.00 | 0.00 | 62 | 1010.6 |
| 20260509034519 | 41 | 198 | 2.0 | 2.0 | 0.00 | 0.00 | 0.00 | 61 | 1010.6 |
| 20260509034015 | 41 | 200 | 0.0 | 5.0 | 0.00 | 0.00 | 0.00 | 60 | 1010.5 |
| 20260509033512 | 41 | 233 | 2.0 | 6.0 | 0.00 | 0.00 | 0.00 | 60 | 1010.5 |
| 20260509033009 | 41 | 213 | 2.0 | 2.0 | 0.00 | 0.00 | 0.00 | 61 | 1010.3 |
| 20260509032507 | 41 | 210 | 2.0 | 3.0 | 0.00 | 0.00 | 0.00 | 61 | 1010.6 |
| 20260509032004 | 41 | 230 | 2.0 | 4.0 | 0.00 | 0.00 | 0.00 | 61 | 1010.5 |
| 20260509031501 | 41 | 215 | 2.0 | 4.0 | 0.00 | 0.00 | 0.00 | 62 | 1010.6 |
| 20260509030958 | 41 | 218 | 1.0 | 3.0 | 0.00 | 0.00 | 0.00 | 62 | 1010.5 |
| 20260509030456 | 41 | 210 | 2.0 | 3.0 | 0.00 | 0.00 | 0.00 | 63 | 1010.8 |
| 20260509025953 | 41 | 3 | 0.0 | 3.0 | 0.00 | 0.00 | 0.00 | 62 | 1010.7 |
| 20260509025449 | 41 | 168 | 0.0 | 2.0 | 0.00 | 0.00 | 0.00 | 61 | 1010.8 |
| 20260509024944 | 41 | 200 | 0.0 | 2.0 | 0.00 | 0.00 | 0.00 | 61 | 1010.8 |
| 20260509024441 | 41 | 187 | 3.0 | 3.0 | 0.00 | 0.00 | 0.00 | 61 | 1010.7 |
| 20260509023937 | 40 | 115 | 1.0 | 2.0 | 0.00 | 0.00 | 0.00 | 62 | 1010.8 |
| 20260509023435 | 41 | 130 | 0.0 | 1.0 | 0.00 | 0.00 | 0.00 | 62 | 1010.8 |
| 20260509022931 | 41 | 89 | 0.0 | 1.0 | 0.00 | 0.00 | 0.00 | 61 | 1010.7 |
| 20260509022428 | 42 | 140 | 0.0 | 2.0 | 0.00 | 0.00 | 0.00 | 59 | 1010.7 |
| 20260509021926 | 42 | 240 | 0.0 | 2.0 | 0.00 | 0.00 | 0.00 | 57 | 1010.8 |
| 20260509021423 | 43 | 154 | 0.0 | 1.0 | 0.00 | 0.00 | 0.00 | 55 | 1011.0 |
| 20260509020920 | 43 | 229 | 1.0 | 2.0 | 0.00 | 0.00 | 0.00 | 55 | 1010.8 |
| 20260509020418 | 43 | 201 | 0.0 | 2.0 | 0.00 | 0.00 | 0.00 | 54 | 1010.8 |
| 20260509015915 | 43 | 212 | 0.0 | 2.0 | 0.00 | 0.00 | 0.00 | 54 | 1010.7 |
| 20260509015414 | 43 | 21 | 0.0 | 3.0 | 0.00 | 0.00 | 0.00 | 54 | 1010.9 |
| 20260509014910 | 43 | 230 | 1.0 | 3.0 | 0.00 | 0.00 | 0.00 | 54 | 1010.8 |
| 20260509014407 | 43 | 304 | 0.0 | 0.0 | 0.00 | 0.00 | 0.00 | 55 | 1010.7 |
| 20260509013903 | 43 | 44 | 0.0 | 1.0 | 0.00 | 0.00 | 0.00 | 55 | 1010.5 |
| 20260509013400 | 43 | 9 | 0.0 | 1.0 | 0.00 | 0.00 | 0.00 | 54 | 1010.5 |
| 20260509012855 | 43 | 131 | 0.0 | 1.0 | 0.00 | 0.00 | 0.00 | 54 | 1010.6 |
| 20260509012353 | 44 | 36 | 1.0 | 1.0 | 0.00 | 0.00 | 0.00 | 53 | 1010.6 |
| 20260509011850 | 44 | 127 | 0.0 | 1.0 | 0.00 | 0.00 | 0.00 | 52 | 1010.4 |